timestamp,wind_dir_avg,wind_spd_avg,wind_spd_max_dir,wind_spd_gust,battery_voltage,lat,long
2023-08-30 00:04:00+00:00,248.0,6.0,249.0,6.49,12.49,47.59359,-54.27349
2023-08-30 00:14:00+00:00,241.0,6.56,245.0,7.04,12.41,47.59359,-54.27349
2023-08-30 00:24:00+00:00,244.0,6.79,244.0,7.47,12.41,47.59359,-54.27349
2023-08-30 00:34:00+00:00,249.0,6.31,252.0,7.08,12.41,47.59359,-54.27349
2023-08-30 00:44:00+00:00,250.0,5.44,246.0,6.01,12.41,47.59359,-54.27349
2023-08-30 00:54:00+00:00,244.0,5.31,244.0,6.11,12.41,47.59359,-54.27349
2023-08-30 01:04:00+00:00,241.0,5.2,242.0,6.01,12.41,47.59359,-54.27349
2023-08-30 01:14:00+00:00,231.0,4.9,231.0,5.56,12.41,47.59359,-54.27349
2023-08-30 01:24:00+00:00,223.0,5.42,224.0,5.99,12.41,47.59359,-54.27349
2023-08-30 01:34:00+00:00,224.0,4.33,229.0,4.92,12.41,47.59359,-54.27349
2023-08-30 01:44:00+00:00,224.0,4.12,221.0,4.78,12.41,47.59359,-54.27349
2023-08-30 01:54:00+00:00,219.0,4.83,222.0,5.37,12.41,47.59359,-54.27349
2023-08-30 02:04:00+00:00,223.0,3.96,223.0,4.8,12.41,47.59359,-54.27349
2023-08-30 02:14:01+00:00,226.0,4.05,227.0,4.66,12.41,47.59359,-54.27349
2023-08-30 02:24:01+00:00,217.0,4.51,219.0,4.93,12.41,47.59359,-54.27349
2023-08-30 02:34:01+00:00,228.0,5.1,230.0,5.65,12.41,47.59359,-54.27349
2023-08-30 02:44:01+00:00,231.0,5.36,234.0,6.65,12.41,47.59359,-54.27349
2023-08-30 02:54:01+00:00,232.0,5.23,236.0,5.87,12.41,47.59359,-54.27349
2023-08-30 03:04:01+00:00,233.0,3.51,237.0,3.95,12.41,47.59359,-54.27349
2023-08-30 03:14:00+00:00,223.0,4.39,224.0,5.08,12.41,47.59359,-54.27349
2023-08-30 03:24:00+00:00,233.0,3.77,238.0,4.24,12.41,47.59359,-54.27349
2023-08-30 03:34:00+00:00,225.0,3.7,233.0,4.62,12.41,47.59359,-54.27349
2023-08-30 03:44:00+00:00,221.0,4.04,217.0,4.4,12.41,47.59359,-54.27349
2023-08-30 03:54:00+00:00,217.0,3.75,218.0,4.28,12.41,47.59359,-54.27349
2023-08-30 04:04:00+00:00,224.0,4.73,216.0,5.39,12.41,47.59359,-54.27349
2023-08-30 04:14:00+00:00,230.0,5.28,235.0,6.08,12.41,47.59359,-54.27349
2023-08-30 04:24:00+00:00,227.0,5.09,232.0,6.03,12.41,47.59359,-54.27349
2023-08-30 04:34:00+00:00,230.0,5.2,232.0,6.18,12.41,47.59359,-54.27349
2023-08-30 04:44:00+00:00,235.0,6.61,240.0,7.64,12.41,47.59359,-54.27349
2023-08-30 04:54:00+00:00,246.0,6.8,245.0,7.45,12.41,47.59359,-54.27349
2023-08-30 05:04:00+00:00,234.0,6.68,238.0,7.53,12.41,47.59359,-54.27349
2023-08-30 05:14:01+00:00,226.0,6.28,229.0,7.47,12.41,47.59359,-54.27349
2023-08-30 05:24:01+00:00,230.0,5.77,232.0,6.81,12.41,47.59359,-54.27349
2023-08-30 05:34:01+00:00,232.0,7.09,235.0,7.87,12.41,47.59359,-54.27349
2023-08-30 05:44:01+00:00,251.0,7.8,246.0,8.46,12.41,47.59359,-54.27349
2023-08-30 05:54:01+00:00,237.0,6.8,235.0,8.1,12.41,47.59359,-54.27349
2023-08-30 06:04:01+00:00,248.0,7.92,245.0,8.51,12.41,47.59359,-54.27349
2023-08-30 06:14:01+00:00,243.0,6.63,241.0,7.41,12.33,47.59359,-54.27349
2023-08-30 06:24:01+00:00,249.0,6.36,250.0,7.23,12.33,47.59359,-54.27349
2023-08-30 06:34:01+00:00,250.0,5.34,251.0,5.95,12.33,47.59359,-54.27349
2023-08-30 06:44:01+00:00,252.0,5.09,250.0,5.48,12.33,47.59359,-54.27349
2023-08-30 06:54:01+00:00,254.0,6.0,256.0,6.88,12.33,47.59359,-54.27349
2023-08-30 07:04:01+00:00,246.0,6.13,245.0,7.05,12.33,47.59359,-54.27349
2023-08-30 07:14:01+00:00,253.0,5.95,250.0,6.63,12.33,47.59359,-54.27349
2023-08-30 07:24:01+00:00,252.0,6.07,253.0,6.79,12.33,47.59359,-54.27349
2023-08-30 07:34:01+00:00,254.0,4.18,251.0,4.63,12.33,47.59359,-54.27349
2023-08-30 07:44:01+00:00,248.0,3.95,249.0,4.42,12.33,47.59359,-54.27349
2023-08-30 07:54:01+00:00,236.0,4.11,240.0,4.41,12.33,47.59359,-54.27349
2023-08-30 08:04:01+00:00,227.0,4.02,218.0,4.83,12.33,47.59359,-54.27349
2023-08-30 08:14:01+00:00,228.0,4.62,230.0,5.53,12.25,47.59359,-54.27349
2023-08-30 08:24:01+00:00,232.0,3.86,235.0,4.31,12.25,47.59359,-54.27349
2023-08-30 08:34:01+00:00,223.0,3.67,215.0,4.34,12.25,47.59359,-54.27349
2023-08-30 08:44:01+00:00,225.0,4.17,220.0,4.72,12.25,47.59359,-54.27349
2023-08-30 08:54:01+00:00,224.0,4.25,222.0,5.15,12.25,47.59359,-54.27349
2023-08-30 09:04:01+00:00,229.0,4.21,228.0,5.02,12.25,47.59359,-54.27349
2023-08-30 09:14:00+00:00,210.0,3.63,208.0,4.01,12.25,47.59359,-54.27349
2023-08-30 09:24:00+00:00,212.0,4.09,216.0,4.57,12.25,47.59359,-54.27349
2023-08-30 09:34:00+00:00,214.0,5.13,218.0,5.54,12.25,47.59359,-54.27349
2023-08-30 09:44:00+00:00,214.0,4.66,216.0,5.07,12.25,47.59359,-54.27349
2023-08-30 09:54:00+00:00,232.0,4.61,241.0,5.68,12.25,47.59359,-54.27349
2023-08-30 10:04:00+00:00,230.0,3.72,228.0,4.37,12.25,47.59359,-54.27349
2023-08-30 10:14:00+00:00,231.0,3.76,227.0,4.4,13.21,47.59359,-54.27349
2023-08-30 10:24:00+00:00,236.0,4.41,237.0,5.33,13.21,47.59359,-54.27349
2023-08-30 10:34:00+00:00,233.0,3.14,236.0,4.08,13.21,47.59359,-54.27349
2023-08-30 10:44:00+00:00,208.0,3.46,209.0,3.65,13.21,47.59359,-54.27349
2023-08-30 10:54:00+00:00,211.0,2.52,211.0,2.79,13.21,47.59359,-54.27349
2023-08-30 11:04:00+00:00,206.0,3.16,207.0,3.46,13.21,47.59359,-54.27349
2023-08-30 11:14:01+00:00,204.0,2.56,210.0,3.01,13.6,47.59359,-54.27349
2023-08-30 11:24:01+00:00,203.0,3.25,204.0,3.61,13.6,47.59359,-54.27349
2023-08-30 11:34:01+00:00,208.0,3.87,212.0,4.26,13.6,47.59359,-54.27349
2023-08-30 11:44:01+00:00,209.0,3.83,213.0,4.32,13.6,47.59359,-54.27349
2023-08-30 11:54:01+00:00,216.0,5.61,218.0,5.96,13.6,47.59359,-54.27349
2023-08-30 12:04:01+00:00,214.0,4.5,212.0,5.37,13.6,47.59359,-54.27349
2023-08-30 12:14:00+00:00,212.0,3.85,215.0,4.31,13.6,47.59359,-54.27349
2023-08-30 12:24:00+00:00,216.0,4.39,224.0,5.61,13.6,47.59359,-54.27349
2023-08-30 12:34:00+00:00,208.0,4.38,219.0,6.15,13.6,47.59359,-54.27349
2023-08-30 12:44:00+00:00,217.0,6.4,218.0,7.23,13.6,47.59359,-54.27349
2023-08-30 12:54:00+00:00,224.0,5.67,235.0,6.84,13.6,47.59359,-54.27349
2023-08-30 13:04:00+00:00,219.0,6.2,227.0,7.86,13.6,47.59359,-54.27349
2023-08-30 13:14:00+00:00,215.0,7.22,223.0,8.87,14.0,47.59359,-54.27349
2023-08-30 13:24:00+00:00,219.0,5.84,218.0,6.58,14.0,47.59359,-54.27349
2023-08-30 13:34:00+00:00,214.0,5.72,213.0,6.28,14.0,47.59359,-54.27349
2023-08-30 13:44:00+00:00,216.0,5.68,219.0,6.48,14.0,47.59359,-54.27349
2023-08-30 13:54:00+00:00,216.0,5.88,216.0,6.43,14.0,47.59359,-54.27349
2023-08-30 14:04:00+00:00,216.0,5.63,216.0,6.15,14.0,47.59359,-54.27349
2023-08-30 14:14:01+00:00,219.0,4.98,217.0,5.85,13.68,47.59359,-54.27349
2023-08-30 14:24:01+00:00,213.0,5.56,210.0,6.33,13.68,47.59359,-54.27349
2023-08-30 14:34:01+00:00,216.0,5.67,222.0,6.3,13.68,47.59359,-54.27349
2023-08-30 14:44:01+00:00,218.0,5.31,218.0,6.34,13.68,47.59359,-54.27349
2023-08-30 14:54:01+00:00,219.0,4.82,225.0,5.61,13.68,47.59359,-54.27349
2023-08-30 15:04:01+00:00,223.0,5.48,226.0,6.18,13.68,47.59359,-54.27349
2023-08-30 15:14:01+00:00,227.0,5.41,228.0,6.2,13.84,47.59359,-54.27349
2023-08-30 15:24:01+00:00,230.0,5.17,228.0,6.12,13.84,47.59359,-54.27349
2023-08-30 15:34:01+00:00,223.0,5.2,230.0,6.67,13.84,47.59359,-54.27349
2023-08-30 15:44:01+00:00,215.0,5.14,219.0,6.2,13.84,47.59359,-54.27349
2023-08-30 15:54:01+00:00,211.0,4.69,214.0,5.26,13.84,47.59359,-54.27349
2023-08-30 16:04:01+00:00,212.0,4.05,213.0,4.61,13.84,47.59359,-54.27349
2023-08-30 16:14:00+00:00,212.0,3.29,217.0,4.02,13.68,47.59359,-54.27349
2023-08-30 16:24:00+00:00,198.0,4.19,199.0,4.68,13.68,47.59359,-54.27349
2023-08-30 16:34:00+00:00,198.0,7.26,211.0,8.9,13.68,47.59359,-54.27349
2023-08-30 16:44:00+00:00,193.0,5.33,215.0,7.07,13.68,47.59359,-54.27349
2023-08-30 16:54:00+00:00,213.0,6.77,221.0,7.58,13.68,47.59359,-54.27349
2023-08-30 17:04:00+00:00,213.0,3.86,226.0,4.91,13.68,47.59359,-54.27349
2023-08-30 17:14:00+00:00,218.0,3.97,236.0,5.43,13.37,47.59359,-54.27349
2023-08-30 17:24:00+00:00,226.0,5.69,232.0,7.3,13.37,47.59359,-54.27349
2023-08-30 17:34:00+00:00,204.0,5.29,222.0,6.36,13.37,47.59359,-54.27349
2023-08-30 17:44:00+00:00,223.0,7.56,223.0,8.24,13.37,47.59359,-54.27349
2023-08-30 17:54:00+00:00,185.0,5.95,211.0,7.32,13.37,47.59359,-54.27349
2023-08-30 18:04:00+00:00,213.0,8.72,213.0,9.87,13.37,47.59359,-54.27349
2023-08-30 18:14:00+00:00,176.0,6.25,172.0,7.29,13.29,47.59359,-54.27349
2023-08-30 18:24:00+00:00,187.0,6.61,197.0,7.81,13.29,47.59359,-54.27349
2023-08-30 18:34:00+00:00,175.0,5.45,174.0,6.17,13.29,47.59359,-54.27349
2023-08-30 18:44:00+00:00,170.0,4.92,167.0,5.66,13.29,47.59359,-54.27349
2023-08-30 18:54:00+00:00,178.0,6.43,212.0,7.92,13.29,47.59359,-54.27349
2023-08-30 19:04:00+00:00,176.0,5.77,213.0,7.66,13.29,47.59359,-54.27349
2023-08-30 19:14:00+00:00,165.0,8.79,169.0,10.32,13.21,47.59359,-54.27349
2023-08-30 19:24:00+00:00,172.0,8.93,177.0,10.39,13.21,47.59359,-54.27349
2023-08-30 19:34:00+00:00,167.0,7.74,167.0,9.03,13.21,47.59359,-54.27349
2023-08-30 19:44:00+00:00,185.0,8.56,204.0,10.14,13.21,47.59359,-54.27349
2023-08-30 19:54:00+00:00,189.0,8.87,201.0,10.22,13.21,47.59359,-54.27349
2023-08-30 20:04:00+00:00,189.0,9.22,204.0,11.09,13.21,47.59359,-54.27349
2023-08-30 20:14:01+00:00,203.0,8.52,214.0,10.15,12.97,47.59359,-54.27349
2023-08-30 20:24:01+00:00,215.0,8.69,214.0,9.89,12.97,47.59359,-54.27349
2023-08-30 20:34:01+00:00,204.0,8.5,206.0,9.56,12.97,47.59359,-54.27349
2023-08-30 20:44:01+00:00,195.0,7.22,215.0,8.81,12.97,47.59359,-54.27349
2023-08-30 20:54:01+00:00,178.0,8.75,202.0,9.82,12.97,47.59359,-54.27349
2023-08-30 21:04:01+00:00,175.0,8.26,180.0,9.21,12.97,47.59359,-54.27349
2023-08-30 21:14:01+00:00,167.0,6.6,166.0,7.59,12.49,47.59359,-54.27349
2023-08-30 21:24:01+00:00,167.0,7.2,171.0,8.53,12.49,47.59359,-54.27349
2023-08-30 21:34:01+00:00,178.0,6.61,178.0,8.14,12.49,47.59359,-54.27349
2023-08-30 21:44:01+00:00,175.0,8.57,175.0,9.28,12.49,47.59359,-54.27349
2023-08-30 21:54:01+00:00,165.0,6.79,166.0,8.49,12.49,47.59359,-54.27349
2023-08-30 22:04:01+00:00,186.0,7.92,212.0,9.2,12.49,47.59359,-54.27349
2023-08-30 22:14:01+00:00,182.0,9.88,200.0,11.94,12.49,47.59359,-54.27349
2023-08-30 22:24:01+00:00,167.0,8.24,160.0,8.99,12.49,47.59359,-54.27349
2023-08-30 22:34:01+00:00,169.0,10.76,167.0,12.1,12.49,47.59359,-54.27349
2023-08-30 22:44:01+00:00,178.0,13.14,199.0,15.77,12.49,47.59359,-54.27349
2023-08-30 22:54:01+00:00,194.0,14.58,193.0,18.84,12.49,47.59359,-54.27349
2023-08-30 23:04:01+00:00,199.0,14.55,199.0,17.64,12.49,47.59359,-54.27349
2023-08-30 23:14:01+00:00,195.0,15.18,195.0,18.01,12.41,47.59359,-54.27349
2023-08-30 23:24:01+00:00,197.0,13.02,195.0,15.6,12.41,47.59359,-54.27349
2023-08-30 23:34:01+00:00,196.0,14.29,197.0,16.77,12.41,47.59359,-54.27349
2023-08-30 23:44:01+00:00,209.0,13.38,216.0,16.82,12.41,47.59359,-54.27349
2023-08-30 23:54:01+00:00,209.0,13.96,213.0,15.79,12.41,47.59359,-54.27349
